Simultaneous Nadir Overpasses (SNOs) Predictions

Prediction of SNOs between NOAA-19 and METOP-C Satellite Orbit:

Table of predicted SNOs for the next 14.0 days since TLE Epoch: 11/13/2020
Index Date (NOAA-19) Time (NOAA-19) Lat,Lon (NOAA-19) SZA (NOAA-19 ) Date (METOP-C) Time (METOP-C) Lat,Lon (METOP-C) SZA (METOP-C ) Distance(km) Time Diff (sec)
1 11/18/2020 08:45:51 -80.25,-106.24 79.27 11/18/2020 08:46:51 -80.25,-106.17 79.25 1.40 60
2 11/18/2020 09:36:46 80.25, 61.03 100.74 11/18/2020 09:37:32 80.24, 61.02 100.74 1.21 46
3 11/18/2020 10:27:51 -80.24,-131.58 79.25 11/18/2020 10:28:13 -80.24,-131.63 79.25 0.81 22
4 11/18/2020 11:18:46 80.24, 35.69 100.76 11/18/2020 11:18:54 80.23, 35.56 100.74 2.74 8
5 11/18/2020 12:09:51 -80.23,-156.92 79.23 11/18/2020 12:09:35 -80.23,-157.08 79.25 3.00 16
6 11/18/2020 13:00:46 80.23, 10.35 100.78 11/18/2020 13:00:15 80.25, 10.42 100.79 2.19 31
7 11/18/2020 13:51:52 -80.24, 177.41 79.22 11/18/2020 13:50:57 -80.22, 177.46 79.25 2.39 55
